2017-071F

Last updated on Sat Jan 06 2018 00:15:03 GMT+0000 (Coordinated Universal Time)

1 43042U 17071F 18005.51485369 .00002562 00000-0 78436-4 0 9991 2 43042 51.6400 113.3389 0005673 41.5317 318.6096 15.37758807 4560
UTC large
Height (km)
Speed (km/s)
/
Latitude / Longitude
Inclination (degrees)
Orbital Period (minutes)
Azimuth
Elevation
Range (km)
Doppler Factor

Next 0 passes for location: London (51.5072 / 0.1276)

Sorry there are no passes over London.